TimeCST,TemperatureF,Dew PointF,Humidity,Sea Level PressureIn,VisibilityMPH,Wind Direction,Wind SpeedMPH,Gust SpeedMPH,PrecipitationIn,Events,Conditions,WindDirDegrees,DateUTC
12:15 AM,37.4,14.0,38,29.91,10.0,SSW,12.7,16.1,N/A,,Clear,200,2012-12-13 06:15:00
12:35 AM,37.4,14.0,38,29.90,10.0,SSW,12.7,-,N/A,,Clear,200,2012-12-13 06:35:00
12:55 AM,35.6,15.8,44,29.90,10.0,SSW,11.5,-,N/A,,Clear,200,2012-12-13 06:55:00
1:15 AM,35.6,15.8,44,29.90,10.0,SSW,11.5,-,N/A,,Clear,200,2012-12-13 07:15:00
1:35 AM,35.6,15.8,44,29.91,10.0,SSW,11.5,17.3,N/A,,Clear,200,2012-12-13 07:35:00
1:55 AM,35.6,15.8,44,29.90,10.0,SSW,10.4,17.3,N/A,,Clear,200,2012-12-13 07:55:00
2:15 AM,35.6,15.8,44,29.92,10.0,SSW,8.1,17.3,N/A,,Clear,210,2012-12-13 08:15:00
2:35 AM,33.8,15.8,48,29.92,10.0,SSW,6.9,-,N/A,,Clear,200,2012-12-13 08:35:00
2:55 AM,33.8,15.8,48,29.92,10.0,SSW,5.8,-,N/A,,Clear,200,2012-12-13 08:55:00
3:15 AM,33.8,15.8,48,29.92,10.0,SSW,8.1,-,N/A,,Clear,210,2012-12-13 09:15:00
3:35 AM,33.8,15.8,48,29.92,10.0,SSW,8.1,-,N/A,,Clear,210,2012-12-13 09:35:00
3:55 AM,35.6,15.8,44,29.92,10.0,SW,8.1,-,N/A,,Clear,220,2012-12-13 09:55:00
4:15 AM,33.8,15.8,48,29.93,10.0,SW,8.1,-,N/A,,Clear,220,2012-12-13 10:15:00
4:35 AM,33.8,15.8,48,29.93,10.0,SW,4.6,-,N/A,,Clear,230,2012-12-13 10:35:00
4:55 AM,33.8,15.8,48,29.93,10.0,SW,5.8,-,N/A,,Clear,230,2012-12-13 10:55:00
5:15 AM,33.8,15.8,48,29.94,10.0,WSW,4.6,-,N/A,,Clear,240,2012-12-13 11:15:00
5:35 AM,33.8,15.8,48,29.94,10.0,SW,6.9,-,N/A,,Clear,220,2012-12-13 11:35:00
5:55 AM,32.0,15.8,51,29.94,10.0,SSW,8.1,-,N/A,,Clear,210,2012-12-13 11:55:00
6:15 AM,32.0,15.8,51,29.95,10.0,SW,6.9,-,N/A,,Clear,220,2012-12-13 12:15:00
6:35 AM,30.2,15.8,55,29.96,10.0,SW,6.9,-,N/A,,Clear,220,2012-12-13 12:35:00
6:55 AM,30.2,15.8,55,29.96,10.0,SW,8.1,-,N/A,,Clear,220,2012-12-13 12:55:00
7:15 AM,30.2,14.0,51,29.97,10.0,SW,5.8,-,N/A,,Clear,220,2012-12-13 13:15:00
7:35 AM,30.2,15.8,55,29.98,10.0,SW,4.6,-,N/A,,Clear,220,2012-12-13 13:35:00
7:55 AM,28.4,15.8,59,29.98,10.0,SW,5.8,-,N/A,,Clear,230,2012-12-13 13:55:00
8:15 AM,30.2,15.8,55,29.99,10.0,WSW,4.6,-,N/A,,Clear,240,2012-12-13 14:15:00
8:35 AM,32.0,15.8,51,29.99,10.0,SW,5.8,-,N/A,,Clear,230,2012-12-13 14:35:00
8:55 AM,33.8,15.8,48,29.99,10.0,WSW,4.6,-,N/A,,Clear,240,2012-12-13 14:55:00
9:15 AM,33.8,15.8,48,30.01,10.0,WSW,6.9,-,N/A,,Clear,250,2012-12-13 15:15:00
9:35 AM,33.8,17.6,52,30.01,10.0,WSW,6.9,-,N/A,,Clear,250,2012-12-13 15:35:00
9:55 AM,35.6,17.6,48,30.02,10.0,WSW,6.9,-,N/A,,Clear,240,2012-12-13 15:55:00
10:15 AM,37.4,17.6,45,30.02,10.0,SW,5.8,-,N/A,,Clear,230,2012-12-13 16:15:00
10:35 AM,39.2,17.6,42,30.04,10.0,WSW,3.5,-,N/A,,Clear,240,2012-12-13 16:35:00
10:55 AM,42.8,19.4,39,30.03,10.0,West,5.8,-,N/A,,Clear,280,2012-12-13 16:55:00
11:15 AM,44.6,19.4,37,30.04,10.0,WNW,6.9,-,N/A,,Clear,290,2012-12-13 17:15:00
11:35 AM,44.6,19.4,37,30.04,10.0,West,5.8,-,N/A,,Clear,280,2012-12-13 17:35:00
11:55 AM,48.2,21.2,34,30.03,10.0,WNW,5.8,-,N/A,,Clear,300,2012-12-13 17:55:00
12:15 PM,51.8,24.8,35,30.02,10.0,North,6.9,-,N/A,,Clear,350,2012-12-13 18:15:00
12:35 PM,48.2,24.8,40,30.02,10.0,NW,9.2,-,N/A,,Clear,320,2012-12-13 18:35:00
12:55 PM,48.2,24.8,40,30.02,10.0,NNW,8.1,-,N/A,,Clear,330,2012-12-13 18:55:00
1:15 PM,48.2,23.0,37,30.02,10.0,NNW,8.1,-,N/A,,Clear,330,2012-12-13 19:15:00
1:35 PM,48.2,24.8,40,30.02,10.0,NNW,6.9,-,N/A,,Clear,330,2012-12-13 19:35:00
1:55 PM,46.4,23.0,40,30.03,10.0,North,6.9,-,N/A,,Clear,350,2012-12-13 19:55:00
2:15 PM,48.2,23.0,37,30.02,10.0,NNE,4.6,-,N/A,,Clear,30,2012-12-13 20:15:00
2:35 PM,48.2,24.8,40,30.02,10.0,NNW,5.8,-,N/A,,Clear,340,2012-12-13 20:35:00
2:55 PM,48.2,24.8,40,30.03,10.0,NNW,5.8,-,N/A,,Clear,330,2012-12-13 20:55:00
3:15 PM,48.2,24.8,40,30.03,10.0,NW,5.8,-,N/A,,Clear,310,2012-12-13 21:15:00
3:35 PM,48.2,23.0,37,30.03,10.0,North,6.9,-,N/A,,Clear,350,2012-12-13 21:35:00
3:55 PM,44.6,23.0,43,30.03,10.0,North,4.6,-,N/A,,Clear,10,2012-12-13 21:55:00
4:15 PM,42.8,21.2,42,30.03,10.0,North,5.8,-,N/A,,Clear,10,2012-12-13 22:15:00
4:35 PM,39.2,19.4,45,30.03,10.0,North,4.6,-,N/A,,Clear,360,2012-12-13 22:35:00
6:15 PM,32.0,17.6,55,30.05,10.0,Calm,Calm,-,N/A,,Clear,0,2012-12-14 00:15:00
7:15 PM,32.0,17.6,55,30.05,10.0,Calm,Calm,-,N/A,,Clear,0,2012-12-14 01:15:00
7:35 PM,30.2,17.6,60,30.05,10.0,Calm,Calm,-,N/A,,Clear,0,2012-12-14 01:35:00
7:55 PM,30.2,17.6,60,30.06,10.0,East,4.6,-,N/A,,Clear,80,2012-12-14 01:55:00
8:15 PM,28.4,15.8,59,30.06,10.0,East,4.6,-,N/A,,Clear,90,2012-12-14 02:15:00
8:35 PM,28.4,15.8,59,30.05,10.0,East,3.5,-,N/A,,Clear,80,2012-12-14 02:35:00
8:55 PM,24.8,12.2,59,30.05,10.0,Calm,Calm,-,N/A,,Clear,0,2012-12-14 02:55:00
9:15 PM,24.8,14.0,64,30.05,10.0,Calm,Calm,-,N/A,,Clear,0,2012-12-14 03:15:00
9:35 PM,23.0,15.8,74,30.06,10.0,Calm,Calm,-,N/A,,Clear,0,2012-12-14 03:35:00
9:55 PM,24.8,15.8,69,30.06,10.0,East,3.5,-,N/A,,Clear,80,2012-12-14 03:55:00
10:15 PM,21.2,12.2,68,30.05,10.0,ENE,3.5,-,N/A,,Clear,60,2012-12-14 04:15:00
10:35 PM,21.2,12.2,68,30.04,10.0,Calm,Calm,-,N/A,,Clear,0,2012-12-14 04:35:00
10:55 PM,21.2,12.2,68,30.04,9.0,NE,3.5,-,N/A,,Clear,50,2012-12-14 04:55:00
11:15 PM,21.2,10.4,63,30.04,10.0,East,4.6,-,N/A,,Clear,90,2012-12-14 05:15:00
11:35 PM,21.2,12.2,68,30.04,10.0,East,4.6,-,N/A,,Clear,90,2012-12-14 05:35:00
11:55 PM,21.2,12.2,68,30.04,10.0,Calm,Calm,-,N/A,,Clear,0,2012-12-14 05:55:00